Location: Bodest
(46.3000°N, 22.5667°E)
Time: 00:35:37
(UTC+00:00)

FENGYUN 1C DEB - Pass Details

Date: 06 April 2023
Orbit: 806 x 916 km, 98.8° (Epoch: 29 May)

Event Time Altitude Azimuth Distance (km) Brightness Sun altitude
Rises 17:43:36 0° 161° (SSE) 3,536 ? -7.4°
Reaches altitude 10° 17:46:02 10° 160° (SSE) 2,592 ? -7.7°
Maximum altitude 17:51:50 83° 73° (ENE) 913 ? -8.7°
Drops below altitude 10° 17:57:33 10° 347° (NNW) 2,556 ? -9.6°
Sets 17:59:56 0° 347° (NNW) 3,483 ? -10.0°
